Location: Caltech
(34.1382°N, 118.1253°W)
Time: 19:03:20
(UTC-07:00)

OPAL - Visible Passes

Search period start: 30 March 2015 00:00
Search period end: 09 April 2015 00:00
Orbit: 743 x 796 km, 100.2° (Epoch: 30 March)

Date Brightness Start Highest point End Pass type
(mag) Time Alt. Az. Time Alt. Az. Time Alt. Az.
30 Mar 8.7 20:51:36 10° N 20:56:21 43° WNW 21:01:06 10° SW visible
31 Mar 7.4 20:16:04 10° NNE 20:21:06 81° ESE 20:26:12 10° SSW visible
31 Mar 10.8 21:58:26 10° NW 21:59:27 10° WNW 22:00:08 10° WNW visible
01 Apr 8.1 19:41:10 10° NE 19:45:41 34° E 19:50:18 10° SSE visible
01 Apr 9.8 21:20:25 10° NNW 21:24:26 24° WNW 21:28:22 10° WSW visible
02 Apr 8.2 20:44:23 10° N 20:49:17 54° WNW 20:54:14 10° SSW visible
03 Apr 7.5 20:08:59 10° NNE 20:14:00 65° ESE 20:19:05 10° S visible
03 Apr 10.5 21:50:00 10° NW 21:52:28 13° WNW 21:54:39 10° W visible
04 Apr 8.4 19:34:18 10° NE 19:38:32 27° E 19:42:53 10° SSE visible
04 Apr 9.4 21:13:02 10° N 21:17:24 29° WNW 21:21:44 10° SW visible
05 Apr 7.8 20:37:11 10° N 20:42:13 68° WNW 20:47:18 10° SSW visible
06 Apr 7.6 20:01:58 10° NNE 20:06:53 51° ESE 20:11:53 10° S visible
06 Apr 10.3 21:42:13 10° NNW 21:45:26 17° WNW 21:48:28 10° WSW visible
07 Apr 9.0 21:05:42 10° N 21:10:21 36° WNW 21:14:59 10° SW visible
08 Apr 7.5 20:30:02 10° NNE 20:35:08 85° WNW 20:40:17 10° SSW visible
